Orbital Elements at Epoch 2459200.5 (2020-Dec-17.0) TDB
Reference: JPL 18 (heliocentric ecliptic J2000)
Element | Value | Uncertainty (1-sigma) | Units |
e | .1181245225583806 | 4.3297e-08 | |
a | 2.5983467073168 | 1.1262e-08 | au |
q | 2.291418243073863 | 1.1268e-07 | au |
i | 4.841598208324241 | 4.9697e-06 | deg |
node | 97.27767170772172 | 6.0163e-05 | deg |
peri | 353.2882868903817 | 6.5204e-05 | deg |
M | 9.649606629273791 | 2.3922e-05 | deg |
tp | 2459159.493643234141 (2020-Nov-05.99364323) | 0.00010161 | TDB |
period | 1529.833184176168 4.19 | 9.9457e-06 2.723e-08 | d yr |
n | .2353197745503631 | 1.5299e-09 | deg/d |
Q | 2.905275171559737 | 1.2592e-08 | au |
|
| | Orbit Determination Parameters
Additional Information
|